Location: Caltech
(34.1382°N, 118.1253°W)
Time: 19:53:59
(UTC-07:00)

AO-Echo - Visible Passes

Search period start: 25 June 2016 00:00
Search period end: 05 July 2016 00:00
Orbit: 694 x 810 km, 98.3° (Epoch: 25 June)

Date Brightness Start Highest point End Pass type
(mag) Time Alt. Az. Time Alt. Az. Time Alt. Az.
25 Jun ? 01:11:41 10° ENE 01:13:46 15° E 01:13:46 15° E visible
25 Jun ? 02:48:32 10° N 02:53:41 53° WNW 02:53:42 53° WNW visible
26 Jun ? 02:08:06 10° NNE 02:12:46 56° ENE 02:12:46 56° ENE visible
26 Jun ? 03:48:38 10° NNW 03:51:27 15° WNW 03:52:42 14° W visible
27 Jun ? 01:28:35 10° NE 01:31:49 22° E 01:31:49 22° E visible
27 Jun ? 03:06:42 10° N 03:11:27 35° WNW 03:11:45 35° WNW visible
28 Jun ? 02:25:56 10° NNE 02:30:49 77° N 02:30:49 77° N visible
29 Jun ? 01:45:57 10° NNE 01:49:52 33° ENE 01:49:52 33° ENE visible
29 Jun ? 03:25:05 10° NNW 03:29:11 24° WNW 03:29:48 23° WNW visible
30 Jun ? 01:07:33 10° ENE 01:08:56 13° ENE 01:08:56 13° ENE visible
30 Jun ? 02:43:54 10° N 02:48:52 58° WNW 02:48:52 58° WNW visible
01 Jul ? 02:03:34 10° NNE 02:07:55 49° ENE 02:07:55 49° ENE visible
01 Jul ? 03:43:47 10° NNW 03:46:52 16° WNW 03:47:51 15° WNW visible
02 Jul ? 01:24:13 10° NE 01:26:58 19° ENE 01:26:58 19° ENE visible
02 Jul ? 03:02:02 10° N 03:06:51 38° WNW 03:06:53 38° WNW visible
03 Jul ? 02:21:21 10° NNE 02:25:56 68° NNE 02:25:56 68° NNE visible
03 Jul ? 04:03:50 10° NW 04:04:29 10° WNW 04:05:08 10° WNW visible
04 Jul ? 01:41:29 10° NE 01:44:59 28° ENE 01:44:59 28° ENE visible
04 Jul ? 03:20:22 10° NNW 03:24:35 26° WNW 03:24:54 26° WNW visible
